| time (UTC) | temp F | wind direction | speed knots | gust knots | rain 1hr in | rain 24hr in | rain mn in | humidity % | barometer mb |
| 20260506124420 | 32 | 333 | 0.0 | 0.0 | 0.00 | 0.02 | 0.00 | 91 | 1016.7 |
| 20260506123919 | 32 | 333 | 0.0 | 0.0 | 0.00 | 0.02 | 0.00 | 92 | 1016.7 |
| 20260506123417 | 32 | 333 | 0.0 | 0.0 | 0.00 | 0.02 | 0.00 | 92 | 1016.7 |
| 20260506122915 | 32 | 333 | 0.0 | 0.0 | 0.00 | 0.02 | 0.00 | 91 | 1016.7 |
| 20260506122413 | 32 | 333 | 0.0 | 0.0 | 0.00 | 0.02 | 0.00 | 92 | 1016.9 |
| 20260506121913 | 32 | 333 | 0.0 | 0.0 | 0.00 | 0.02 | 0.00 | 91 | 1016.8 |
| 20260506121408 | 32 | 333 | 0.0 | 0.0 | 0.00 | 0.02 | 0.00 | 92 | 1016.6 |
| 20260506120902 | 32 | 333 | 0.0 | 0.0 | 0.00 | 0.02 | 0.00 | 91 | 1016.6 |
| 20260506120355 | 32 | 333 | 0.0 | 0.0 | 0.00 | 0.02 | 0.00 | 91 | 1016.6 |
| 20260506115849 | 32 | 333 | 0.0 | 0.0 | 0.00 | 0.02 | 0.00 | 91 | 1016.6 |
| 20260506115343 | 32 | 333 | 0.0 | 0.0 | 0.00 | 0.02 | 0.00 | 91 | 1016.5 |
| 20260506114836 | 32 | 333 | 0.0 | 0.0 | 0.00 | 0.02 | 0.00 | 91 | 1016.5 |
| 20260506114331 | 32 | 333 | 0.0 | 0.0 | 0.00 | 0.02 | 0.00 | 91 | 1016.5 |
| 20260506113826 | 32 | 333 | 0.0 | 0.0 | 0.00 | 0.02 | 0.00 | 91 | 1016.5 |
| 20260506112813 | 32 | 333 | 0.0 | 0.0 | 0.00 | 0.02 | 0.00 | 91 | 1016.4 |
| 20260506112307 | 32 | 333 | 0.0 | 0.0 | 0.00 | 0.02 | 0.00 | 91 | 1016.2 |
| 20260506111800 | 32 | 333 | 0.0 | 0.0 | 0.00 | 0.02 | 0.00 | 91 | 1016.1 |
| 20260506111255 | 32 | 333 | 0.0 | 0.0 | 0.00 | 0.02 | 0.00 | 91 | 1016.2 |
| 20260506110749 | 32 | 333 | 0.0 | 0.0 | 0.00 | 0.02 | 0.00 | 91 | 1016.1 |
| 20260506110242 | 32 | 333 | 0.0 | 0.0 | 0.00 | 0.02 | 0.00 | 91 | 1016.0 |
| 20260506105738 | 32 | 333 | 0.0 | 0.0 | 0.00 | 0.02 | 0.00 | 91 | 1015.9 |
| 20260506105231 | 32 | 333 | 0.0 | 0.0 | 0.00 | 0.02 | 0.00 | 91 | 1015.9 |
| 20260506104724 | 32 | 333 | 0.0 | 0.0 | 0.00 | 0.02 | 0.00 | 91 | 1015.9 |
| 20260506104218 | 32 | 333 | 0.0 | 0.0 | 0.00 | 0.02 | 0.00 | 91 | 1015.9 |
| 20260506103712 | 32 | 333 | 0.0 | 0.0 | 0.00 | 0.02 | 0.00 | 91 | 1015.9 |
| 20260506103207 | 32 | 333 | 0.0 | 0.0 | 0.00 | 0.02 | 0.00 | 91 | 1015.9 |
| 20260506102155 | 32 | 333 | 0.0 | 0.0 | 0.00 | 0.02 | 0.00 | 91 | 1016.1 |
| 20260506101143 | 32 | 333 | 0.0 | 0.0 | 0.00 | 0.02 | 0.00 | 91 | 1016.1 |
| 20260506100637 | 32 | 333 | 0.0 | 0.0 | 0.00 | 0.02 | 0.00 | 91 | 1016.1 |
| 20260506095626 | 32 | 333 | 0.0 | 0.0 | 0.00 | 0.02 | 0.00 | 91 | 1016.2 |
| 20260506095119 | 32 | 333 | 0.0 | 0.0 | 0.00 | 0.02 | 0.00 | 91 | 1016.0 |
| 20260506094614 | 32 | 333 | 0.0 | 0.0 | 0.00 | 0.02 | 0.00 | 91 | 1016.0 |
| 20260506093613 | 32 | 333 | 0.0 | 0.0 | 0.00 | 0.02 | 0.00 | 91 | 1015.9 |
| 20260506093056 | 32 | 333 | 0.0 | 0.0 | 0.00 | 0.02 | 0.00 | 91 | 1015.9 |
| 20260506092549 | 32 | 333 | 0.0 | 0.0 | 0.00 | 0.02 | 0.00 | 91 | 1015.9 |
| 20260506092042 | 32 | 333 | 0.0 | 0.0 | 0.00 | 0.02 | 0.00 | 91 | 1015.9 |
| 20260506090525 | 32 | 333 | 0.0 | 0.0 | 0.00 | 0.02 | 0.00 | 91 | 1015.9 |
| 20260506090018 | 32 | 333 | 0.0 | 0.0 | 0.00 | 0.02 | 0.00 | 91 | 1015.8 |
| 20260506085513 | 32 | 333 | 0.0 | 0.0 | 0.00 | 0.02 | 0.00 | 91 | 1015.9 |
| 20260506085008 | 32 | 333 | 0.0 | 0.0 | 0.00 | 0.02 | 0.00 | 91 | 1015.8 |
| 20260506083955 | 32 | 333 | 0.0 | 0.0 | 0.00 | 0.02 | 0.00 | 91 | 1015.7 |
| 20260506083455 | 32 | 333 | 0.0 | 0.0 | 0.00 | 0.02 | 0.00 | 91 | 1015.7 |
| 20260506082952 | 32 | 333 | 0.0 | 0.0 | 0.00 | 0.02 | 0.00 | 91 | 1015.7 |
| 20260506082453 | 32 | 333 | 0.0 | 0.0 | 0.00 | 0.02 | 0.00 | 91 | 1015.8 |
| 20260506081953 | 32 | 333 | 0.0 | 0.0 | 0.00 | 0.02 | 0.00 | 91 | 1016.0 |
| 20260506081451 | 32 | 333 | 0.0 | 0.0 | 0.00 | 0.02 | 0.00 | 91 | 1016.2 |
| 20260506073448 | 32 | 333 | 0.0 | 0.0 | 0.00 | 0.02 | 0.00 | 91 | 1015.9 |
| 20260506072942 | 32 | 333 | 0.0 | 0.0 | 0.00 | 0.02 | 0.00 | 91 | 1015.9 |
| 20260506071943 | 32 | 333 | 0.0 | 0.0 | 0.00 | 0.02 | 0.00 | 91 | 1016.0 |
| 20260506071443 | 32 | 333 | 0.0 | 0.0 | 0.00 | 0.02 | 0.00 | 91 | 1016.0 |
| 20260506070942 | 32 | 333 | 0.0 | 0.0 | 0.00 | 0.02 | 0.00 | 91 | 1016.0 |
| 20260506062442 | 32 | 333 | 0.0 | 0.0 | 0.00 | 0.02 | 0.00 | 91 | 1015.5 |
| 20260506061942 | 32 | 333 | 0.0 | 0.0 | 0.00 | 0.02 | 0.00 | 91 | 1015.4 |
| 20260506060944 | 32 | 333 | 0.0 | 0.0 | 0.00 | 0.02 | 0.00 | 91 | 1015.5 |
| 20260506060441 | 32 | 333 | 0.0 | 0.0 | 0.00 | 0.02 | 0.00 | 91 | 1015.5 |
| 20260506050837 | 32 | 333 | 0.0 | 0.0 | 0.00 | 0.02 | 0.02 | 91 | 1015.0 |
| 20260506050331 | 32 | 333 | 0.0 | 0.0 | 0.00 | 0.02 | 0.02 | 91 | 1015.0 |
| 20260506044307 | 32 | 333 | 0.0 | 0.9 | 0.00 | 0.02 | 0.02 | 91 | 1015.1 |
| 20260506043800 | 32 | 333 | 0.0 | 0.9 | 0.00 | 0.02 | 0.02 | 90 | 1015.2 |
| 20260506043257 | 32 | 333 | 0.0 | 0.9 | 0.00 | 0.02 | 0.02 | 90 | 1015.2 |
| 20260506042757 | 32 | 333 | 0.0 | 0.9 | 0.00 | 0.02 | 0.02 | 90 | 1015.1 |
| 20260506041759 | 32 | 333 | 0.0 | 2.6 | 0.00 | 0.02 | 0.02 | 90 | 1015.1 |
| 20260506040756 | 32 | 333 | 0.0 | 1.7 | 0.00 | 0.02 | 0.02 | 90 | 1015.0 |
| 20260506040257 | 32 | 333 | 0.0 | 1.7 | 0.00 | 0.02 | 0.02 | 90 | 1015.0 |
| 20260506035757 | 33 | 333 | 0.0 | 1.7 | 0.00 | 0.02 | 0.02 | 90 | 1015.1 |
| 20260506035254 | 33 | 333 | 0.0 | 1.7 | 0.00 | 0.02 | 0.02 | 90 | 1015.0 |
| 20260506034753 | 33 | 333 | 0.0 | 0.9 | 0.00 | 0.02 | 0.02 | 90 | 1015.0 |
| 20260506034253 | 33 | 333 | 0.0 | 0.9 | 0.00 | 0.02 | 0.02 | 90 | 1015.0 |
| 20260506033753 | 33 | 333 | 0.0 | 2.6 | 0.00 | 0.02 | 0.02 | 90 | 1014.7 |
| 20260506033251 | 33 | 333 | 0.0 | 2.6 | 0.00 | 0.02 | 0.02 | 90 | 1014.6 |
| 20260506032249 | 33 | 333 | 0.0 | 2.6 | 0.00 | 0.02 | 0.02 | 90 | 1014.6 |
| 20260506031749 | 33 | 333 | 0.0 | 1.7 | 0.00 | 0.02 | 0.02 | 90 | 1014.6 |
| 20260506030748 | 33 | 333 | 0.0 | 1.7 | 0.00 | 0.02 | 0.02 | 90 | 1014.4 |
| 20260506030249 | 33 | 333 | 0.0 | 1.7 | 0.00 | 0.02 | 0.02 | 90 | 1014.3 |
| 20260506025246 | 33 | 333 | 0.0 | 2.6 | 0.00 | 0.02 | 0.02 | 90 | 1014.1 |
| 20260506024746 | 33 | 333 | 0.0 | 0.9 | 0.00 | 0.02 | 0.02 | 90 | 1014.0 |
| 20260506024248 | 33 | 333 | 0.0 | 0.9 | 0.00 | 0.02 | 0.02 | 90 | 1013.9 |
| 20260506023748 | 33 | 333 | 0.0 | 0.9 | 0.00 | 0.02 | 0.02 | 90 | 1013.8 |
| 20260506023248 | 33 | 333 | 0.0 | 0.0 | 0.00 | 0.02 | 0.02 | 90 | 1013.7 |
| 20260506022748 | 33 | 333 | 0.0 | 0.0 | 0.00 | 0.02 | 0.02 | 90 | 1013.6 |
| 20260506021743 | 33 | 333 | 0.0 | 0.0 | 0.00 | 0.02 | 0.02 | 90 | 1013.4 |
| 20260506020743 | 33 | 333 | 0.0 | 1.7 | 0.00 | 0.02 | 0.02 | 90 | 1013.3 |
| 20260506020244 | 33 | 333 | 0.0 | 1.7 | 0.00 | 0.02 | 0.02 | 90 | 1013.3 |
| 20260506015742 | 33 | 333 | 0.0 | 0.9 | 0.00 | 0.02 | 0.02 | 90 | 1013.2 |
| 20260506015244 | 33 | 333 | 0.0 | 1.7 | 0.00 | 0.02 | 0.02 | 90 | 1013.1 |
| 20260506014742 | 33 | 333 | 0.0 | 1.7 | 0.00 | 0.02 | 0.02 | 89 | 1013.1 |
| 20260506014242 | 33 | 333 | 0.0 | 0.9 | 0.00 | 0.02 | 0.02 | 89 | 1013.2 |
| 20260506013738 | 33 | 333 | 0.0 | 0.9 | 0.00 | 0.02 | 0.02 | 89 | 1013.1 |
| 20260506013239 | 33 | 333 | 0.0 | 0.9 | 0.00 | 0.02 | 0.02 | 89 | 1013.0 |
| 20260506011738 | 33 | 333 | 0.0 | 0.9 | 0.00 | 0.02 | 0.02 | 89 | 1012.9 |
| 20260506011238 | 33 | 333 | 0.0 | 0.9 | 0.00 | 0.02 | 0.02 | 89 | 1012.6 |
| 20260506010738 | 33 | 333 | 0.0 | 0.9 | 0.00 | 0.02 | 0.02 | 89 | 1012.6 |
| 20260506010238 | 33 | 333 | 0.0 | 0.9 | 0.00 | 0.02 | 0.02 | 89 | 1012.7 |
| 20260506005738 | 33 | 333 | 0.0 | 0.9 | 0.00 | 0.02 | 0.02 | 89 | 1012.7 |
| 20260506005238 | 33 | 333 | 0.0 | 0.9 | 0.00 | 0.02 | 0.02 | 89 | 1012.7 |
| 20260506004232 | 33 | 333 | 0.0 | 0.9 | 0.00 | 0.02 | 0.02 | 89 | 1012.5 |
| 20260506003217 | 33 | 333 | 0.0 | 0.9 | 0.00 | 0.02 | 0.02 | 89 | 1012.6 |
| 20260506002712 | 33 | 333 | 0.0 | 0.9 | 0.00 | 0.02 | 0.02 | 89 | 1012.4 |
| 20260506002206 | 33 | 333 | 0.0 | 0.9 | 0.00 | 0.02 | 0.02 | 89 | 1012.5 |
| 20260506001155 | 33 | 333 | 0.0 | 0.9 | 0.00 | 0.02 | 0.02 | 89 | 1012.3 |
| 20260506000142 | 33 | 333 | 0.0 | 0.9 | 0.00 | 0.02 | 0.02 | 89 | 1012.5 |
| 20260505235636 | 33 | 333 | 0.0 | 0.0 | 0.00 | 0.02 | 0.02 | 89 | 1012.3 |
| 20260505234623 | 33 | 333 | 0.0 | 0.9 | 0.00 | 0.02 | 0.02 | 88 | 1012.2 |
| 20260505234117 | 34 | 333 | 0.0 | 0.9 | 0.00 | 0.02 | 0.02 | 88 | 1012.0 |
| 20260505233612 | 34 | 333 | 0.0 | 1.7 | 0.00 | 0.02 | 0.02 | 88 | 1012.0 |
| 20260505232600 | 35 | 333 | 0.0 | 2.6 | 0.00 | 0.02 | 0.02 | 88 | 1012.2 |
| 20260505231547 | 36 | 250 | 0.9 | 5.2 | 0.00 | 0.02 | 0.02 | 88 | 1012.2 |
| 20260505231042 | 37 | 355 | 0.9 | 5.2 | 0.00 | 0.02 | 0.02 | 88 | 1012.3 |
| 20260505230536 | 38 | 319 | 0.9 | 4.3 | 0.00 | 0.02 | 0.02 | 89 | 1012.4 |
| 20260505225524 | 38 | 316 | 0.0 | 3.5 | 0.01 | 0.02 | 0.02 | 88 | 1011.8 |
| 20260505225017 | 38 | 316 | 0.9 | 3.5 | 0.01 | 0.02 | 0.02 | 88 | 1011.6 |
| 20260505224511 | 38 | 315 | 0.9 | 5.2 | 0.01 | 0.02 | 0.02 | 88 | 1011.5 |
| 20260505224006 | 38 | 351 | 0.9 | 5.2 | 0.01 | 0.02 | 0.02 | 89 | 1011.3 |
| 20260505223501 | 38 | 345 | 0.9 | 4.3 | 0.01 | 0.02 | 0.02 | 89 | 1011.2 |
| 20260505222954 | 38 | 351 | 0.9 | 4.3 | 0.01 | 0.02 | 0.02 | 88 | 1011.3 |
| 20260505221942 | 38 | 355 | 0.9 | 7.0 | 0.01 | 0.02 | 0.02 | 88 | 1011.3 |
| 20260505221435 | 38 | 355 | 0.9 | 7.0 | 0.01 | 0.02 | 0.02 | 88 | 1011.3 |
| 20260505220424 | 39 | 355 | 0.9 | 6.1 | 0.01 | 0.02 | 0.02 | 88 | 1011.0 |
| 20260505215917 | 40 | 355 | 0.9 | 3.5 | 0.00 | 0.01 | 0.01 | 88 | 1011.0 |
| 20260505215411 | 40 | 325 | 0.9 | 6.1 | 0.00 | 0.01 | 0.01 | 88 | 1011.1 |
| 20260505214906 | 41 | 75 | 0.0 | 6.1 | 0.00 | 0.01 | 0.01 | 88 | 1011.1 |
| 20260505214359 | 41 | 335 | 0.9 | 3.5 | 0.00 | 0.01 | 0.01 | 88 | 1011.0 |
| 20260505213854 | 41 | 345 | 0.0 | 3.5 | 0.00 | 0.01 | 0.01 | 88 | 1011.0 |
| 20260505213348 | 41 | 348 | 0.0 | 1.7 | 0.00 | 0.01 | 0.01 | 88 | 1011.0 |
| 20260505212841 | 41 | 347 | 0.0 | 2.6 | 0.00 | 0.01 | 0.01 | 88 | 1011.1 |
| 20260505212335 | 41 | 65 | 0.0 | 3.5 | 0.00 | 0.01 | 0.01 | 88 | 1011.1 |
| 20260505211325 | 41 | 76 | 0.0 | 3.5 | 0.00 | 0.01 | 0.01 | 89 | 1011.0 |
| 20260505210819 | 41 | 65 | 0.0 | 3.5 | 0.00 | 0.01 | 0.01 | 89 | 1011.1 |
| 20260505210312 | 41 | 78 | 0.0 | 2.6 | 0.00 | 0.01 | 0.01 | 89 | 1011.1 |
| 20260505205806 | 41 | 79 | 0.0 | 1.7 | 0.00 | 0.01 | 0.01 | 89 | 1011.3 |
| 20260505204247 | 41 | 86 | 0.0 | 3.5 | 0.00 | 0.01 | 0.01 | 89 | 1011.7 |
| 20260505203247 | 41 | 87 | 0.0 | 1.7 | 0.00 | 0.01 | 0.01 | 89 | 1011.9 |
| 20260505202744 | 41 | 87 | 0.0 | 2.6 | 0.00 | 0.01 | 0.01 | 89 | 1012.0 |
| 20260505201742 | 41 | 87 | 0.0 | 1.7 | 0.00 | 0.01 | 0.01 | 89 | 1012.3 |
| 20260505200740 | 41 | 87 | 0.0 | 2.6 | 0.00 | 0.01 | 0.01 | 89 | 1012.2 |
| 20260505200238 | 41 | 87 | 0.0 | 2.6 | 0.00 | 0.01 | 0.01 | 89 | 1012.2 |
| 20260505195736 | 41 | 88 | 0.0 | 1.7 | 0.00 | 0.01 | 0.01 | 89 | 1012.3 |
| 20260505195236 | 41 | 88 | 0.0 | 2.6 | 0.00 | 0.01 | 0.01 | 89 | 1012.3 |
| 20260505194735 | 41 | 88 | 0.0 | 2.6 | 0.00 | 0.01 | 0.01 | 89 | 1012.3 |
| 20260505194234 | 41 | 88 | 0.0 | 2.6 | 0.00 | 0.01 | 0.01 | 89 | 1012.2 |
| 20260505193734 | 41 | 88 | 0.0 | 2.6 | 0.00 | 0.01 | 0.01 | 89 | 1012.2 |
| 20260505193232 | 41 | 82 | 0.0 | 2.6 | 0.00 | 0.01 | 0.01 | 89 | 1012.0 |
| 20260505192732 | 41 | 82 | 0.9 | 3.5 | 0.00 | 0.01 | 0.01 | 89 | 1012.0 |
| 20260505192234 | 41 | 82 | 0.0 | 3.5 | 0.00 | 0.01 | 0.01 | 89 | 1011.9 |
| 20260505191731 | 42 | 85 | 0.0 | 1.7 | 0.00 | 0.01 | 0.01 | 90 | 1011.9 |
| 20260505190733 | 41 | 88 | 0.0 | 2.6 | 0.00 | 0.01 | 0.01 | 90 | 1012.2 |
| 20260505185724 | 41 | 88 | 0.0 | 1.7 | 0.00 | 0.01 | 0.01 | 90 | 1012.4 |
| 20260505185224 | 41 | 88 | 0.0 | 1.7 | 0.00 | 0.01 | 0.01 | 90 | 1012.4 |
| 20260505184723 | 41 | 88 | 0.9 | 2.6 | 0.00 | 0.01 | 0.01 | 90 | 1012.5 |
| 20260505184224 | 41 | 88 | 0.0 | 2.6 | 0.00 | 0.01 | 0.01 | 90 | 1012.6 |
| 20260505183724 | 41 | 88 | 0.0 | 1.7 | 0.00 | 0.01 | 0.01 | 90 | 1012.7 |
| 20260505183223 | 41 | 88 | 0.0 | 1.7 | 0.00 | 0.01 | 0.01 | 90 | 1012.7 |
| 20260505182724 | 40 | 88 | 0.0 | 1.7 | 0.00 | 0.01 | 0.01 | 90 | 1012.7 |
| 20260505182221 | 40 | 89 | 0.0 | 1.7 | 0.00 | 0.01 | 0.01 | 90 | 1012.6 |
| 20260505181720 | 40 | 89 | 0.0 | 2.6 | 0.01 | 0.01 | 0.01 | 90 | 1012.7 |
| 20260505181218 | 40 | 89 | 0.9 | 2.6 | 0.01 | 0.01 | 0.01 | 90 | 1013.0 |
| 20260505180715 | 40 | 89 | 0.0 | 2.6 | 0.01 | 0.01 | 0.01 | 90 | 1013.1 |
| 20260505180216 | 40 | 61 | 0.0 | 1.7 | 0.01 | 0.01 | 0.01 | 90 | 1013.1 |
| 20260505175218 | 40 | 58 | 0.0 | 2.6 | 0.01 | 0.01 | 0.01 | 90 | 1013.2 |
| 20260505174719 | 40 | 55 | 0.0 | 1.7 | 0.01 | 0.01 | 0.01 | 90 | 1013.3 |
| 20260505174215 | 40 | 54 | 0.0 | 3.5 | 0.01 | 0.01 | 0.01 | 90 | 1013.4 |
| 20260505173716 | 40 | 51 | 0.0 | 3.5 | 0.01 | 0.01 | 0.01 | 90 | 1013.4 |
| 20260505172711 | 40 | 70 | 0.0 | 1.7 | 0.01 | 0.01 | 0.01 | 90 | 1013.4 |
| 20260505171711 | 40 | 67 | 0.0 | 2.6 | 0.00 | 0.00 | 0.00 | 90 | 1013.4 |
| 20260505171211 | 40 | 65 | 0.0 | 2.6 | 0.00 | 0.00 | 0.00 | 90 | 1013.3 |
| 20260505170711 | 39 | 65 | 0.0 | 2.6 | 0.00 | 0.00 | 0.00 | 90 | 1013.4 |
| 20260505170212 | 39 | 65 | 0.0 | 1.7 | 0.00 | 0.00 | 0.00 | 90 | 1013.4 |
| 20260505165708 | 39 | 63 | 0.0 | 1.7 | 0.00 | 0.00 | 0.00 | 90 | 1013.6 |
| 20260505164708 | 39 | 63 | 0.0 | 0.9 | 0.00 | 0.00 | 0.00 | 90 | 1013.6 |
| 20260505164207 | 39 | 61 | 0.0 | 1.7 | 0.00 | 0.00 | 0.00 | 90 | 1013.6 |
| 20260505163707 | 39 | 52 | 0.0 | 1.7 | 0.00 | 0.00 | 0.00 | 90 | 1013.7 |
| 20260505163208 | 39 | 54 | 0.0 | 1.7 | 0.00 | 0.00 | 0.00 | 90 | 1013.7 |
| 20260505162707 | 39 | 53 | 0.0 | 2.6 | 0.00 | 0.00 | 0.00 | 90 | 1013.6 |
| 20260505162208 | 39 | 53 | 0.0 | 2.6 | 0.00 | 0.00 | 0.00 | 90 | 1013.7 |
| 20260505161707 | 38 | 53 | 0.0 | 0.9 | 0.00 | 0.00 | 0.00 | 90 | 1013.7 |
| 20260505161203 | 38 | 53 | 0.0 | 0.9 | 0.00 | 0.00 | 0.00 | 90 | 1013.7 |
| 20260505160703 | 38 | 53 | 0.0 | 1.7 | 0.00 | 0.00 | 0.00 | 90 | 1013.8 |
| 20260505160203 | 38 | 53 | 0.0 | 1.7 | 0.00 | 0.00 | 0.00 | 90 | 1013.8 |
| 20260505152155 | 38 | 33 | 0.0 | 0.9 | 0.00 | 0.00 | 0.00 | 90 | 1014.0 |
| 20260505151653 | 38 | 33 | 0.0 | 0.9 | 0.00 | 0.00 | 0.00 | 90 | 1014.0 |
| 20260505151153 | 38 | 33 | 0.0 | 1.7 | 0.00 | 0.00 | 0.00 | 89 | 1014.0 |
| 20260505150653 | 38 | 33 | 0.0 | 1.7 | 0.00 | 0.00 | 0.00 | 89 | 1014.0 |
| 20260505150151 | 38 | 342 | 0.0 | 1.7 | 0.00 | 0.00 | 0.00 | 89 | 1013.9 |
| 20260505124920 | 38 | 324 | 0.0 | 0.9 | 0.00 | 0.00 | 0.00 | 88 | 1013.1 |